LBPDLTBY

Guest
Details From LBPD - Plovdiv
To LTBY - ANADOLU
Flight Number -
Tags generated
Created
Modified
Stats Distance 296 nm / 548 km
Max Altitude 27,700 ft / 8,443 m
Waypoints 5
Social Downloads 1
Likes 0
Share

Download

Looking for another format? Having issues loading an existing format? Contact us
Advertisement - Login to hide

Notes

Basic altitude profile: - Ascent Rate: 2500ft/min - Ascent Speed: 250kts - Cruise Altitude: 35000ft - Cruise Speed: 420kts - Descent Rate: 1500ft/min - Descent Speed: 250kts Options: - Use NATs: yes - Use PACOTS: yes - Use low airways: yes - Use high airways: yes

Route

LBPD PODIN A4 ADORU UL614 YAA LTBY

ID Type Via Altitude (ft/m) Position (lat/lon) Dist (leg/tot) Name
O LBPD APT - 0 / 0 42.06786 / 24.85081 - / 0 nm Plovdiv
PODIN FIX - 6,000 / 1,829 42.01583 / 25.22611 17 / 17 nm
ADORU FIX A4 (AWY-LO) 27,700 / 8,443 41.87167 / 26.56833 60 / 77 nm
YAA VOR UL614 (AWY-HI) 27,500 / 8,382 40.47500 / 29.20750 145 / 223 nm YALOVA VOR-DME
O LTBY APT - 0 / 0 39.80991 / 30.51939 72 / 295 nm ANADOLU

Altitude Profile

Advertisement - Login to hide

Weather


0- 5 10 15 20 25 30 35+ Temperature / °C

Clouds and Precipitation
Forecast for 2021-07-29 00:00 UTC. Updated an hour ago

Ground ~20,000 ft ~40,000 ft Winds

LBPD

Details ICAO LBPD (PDV)
Name Plovdiv
Region Bulgaria
Timezone Europe/Sofia (UTC+3.0)
Stats Elevation 597 ft / 182 m (AMSL)
Location 42.067800° 24.850900°
Runways 1
Magnetic Variation 5.439° E

METAR

LBPD 282230Z AUTO 22004KT 9999 NCD 24/13 Q1015

Decode

TAF

TAF LBPD 281700Z 2818/2918 12010KT CAVOK BECMG 2818/2820 VRB04KT BECMG 2912/2914 06010KT

Decode

Departure Runways

ID Width Length Bearing (true/mag) Surface Threshold Overrun Markings Lighting
12 148 ft / 45 m 8,211 ft / 2,503 m 127.33° / 121.89° CONCRETE 0 ft / 0 m 236 ft / 72 m PREC-APP CENTERLINE EDGE THRESHOLD ALSF-II
30 148 ft / 45 m 8,211 ft / 2,503 m 307.35° / 301.91° CONCRETE 0 ft / 0 m 295 ft / 90 m PREC-APP CENTERLINE EDGE THRESHOLD ALSF-II

LTBY

Details ICAO LTBY (AOE)
Name ANADOLU
Region Turkey
Timezone Europe/Istanbul (UTC+3.0)
Stats Elevation 2,588 ft / 789 m (AMSL)
Location 39.809900° 30.519400°
Runways 1
Magnetic Variation 5.790° E

METAR

LTBY 282150Z 24005KT 210V270 CAVOK 19/13 Q1018

Decode

TAF

Not found

Destination Runways

ID Width Length Bearing (true/mag) Surface Threshold Overrun Markings Lighting
09 98 ft / 30 m 8,250 ft / 2,515 m 92.76° / 86.97° ASPHALT 0 ft / 0 m 97 ft / 30 m APP EDGE THRESHOLD
27 98 ft / 30 m 8,250 ft / 2,515 m 272.78° / 266.99° ASPHALT 0 ft / 0 m 95 ft / 29 m APP EDGE THRESHOLD